Location: *
(60.1759°S, 155.0663°W)
Time: 16:52:52
(UTC+00:00)

CZ-4B R/B - Pass Details

Date: 17 September 2019
Orbit: 393 x 471 km, 97.6° (Epoch: 15 October)

Event Time Altitude Azimuth Distance (km) Brightness Sun altitude
Rises 13:29:44 0° 155° (SSE) 2,398 6.1 -21.2°
Reaches altitude 10° 13:32:09 10° 136° (SE) 1,538 5.2 -21.0°
Maximum altitude 13:34:36 19° 88° (E) 1,095 3.9 -20.7°
Drops below altitude 10° 13:37:05 10° 39° (NE) 1,553 4.2 -20.5°
Enters shadow 13:37:55 - 31° (NNE) 1,832 4.5 -20.4°
